Showing default

EAGLESAT 1, 43018

Orbit data source: Space-Track

EAGLESAT 1, 43018 is a payload satellite owned by Embry-Riddle (US) in SSO that was launched on Sat, 18 Nov 2017 UTC via a DELTA 7920-10C launch vehicle from the Air Force Western Test Range (AFWTR). Payloads include a variety of satellites, spacecraft, and rockets equipped with specific instruments for various scientific and technological missions. These include communications satellites like Starlink; space stations such as the ISS; scientific satellites like the Hubble; Earth observation satellites from companies like Planet Labs, Umbra, and HawkEye 360; GPS; miniature CubeSats for education and research; and military/defense satellites.

Loading next visibility...
EAGLESAT 1 details
Identifier
43018, 2017-073F
Orbit
SSO
Last TLE update8 hours ago
Origin
Flag of USEmbry-Riddle (US)
ManufacturerEmbry-Riddle
MissionNon-operational Amateur Technology
Bus & MotorCUBESAT 1U, Unknown motor
Mass1 kg wet, 1 kg dry
Launch date (UTC)
2017-11-18 (7 years ago)
Launch vehicle
DELTA 7920-10C
Launch site
Air Force Western Test Range (AFWTR)
Object type
Payload
Rocket body
Debris
Shape & HBRBox, 0.1 m
Radar Cross Section0.015 m², Small (<0.1 m²)

Expand to show TLE details & history

TLE from 8 hours ago
0 EAGLESAT 1
1 43018U 17073F   24356.92555213  .00056862  00000-0  18708-2 0  9999
2 43018  97.5657 240.7153 0132796 339.0807  20.5025 15.23148042384499
Epoch: 2024-12-21T22:12Z
Definitive object data (Epoch: 2024-12-21T22:12:47.704Z)
Latitude0.00004°
Longitude176.54681°
Altitude414.068 km
Speed7.71 km/s
True Right ascension16h 02m 51s
True Declination0° 00' 00"
Sunlit
Object was in daylight at TLE epoch
Visualization TLE readout
Latitude30.72551°
Longitude172.3809°
Altitude444.628 km
Speed7.679 km/s
Apparent Right ascension16h 28m 06s
Apparent Declination-3° 16' 31"
Sunlit
Object is in daylight
Visualization observer readout
Local Sidereal Time05:18:26
Azimuth20.514° NNE
Elevation-51.628°
Doppler factor1
Orbital elements
Apogee altitude584.57 km
Perigee altitude402.07 km
Semi-major axis6,871.457 km
Eccentricity0.0132796
Inclination97.5657°
RAAN240.7153°
Arg. of periapsis339.0807°
True anomaly21.04389°
Mean anomaly20.5025°
Eccentric anomaly20.77235°
Mean motion3.81039 °/min
BSTAR0.0018708
Orbital period94.48 mins
Loading maneuver chart data...
Loading historical data...
Loading historical data...
Loading historical data...
Loading historical data...
Loading historical data...
Loading historical data...
Loading historical data...

EAGLESAT 1 Visibility forecast

Observer location: undefined°, undefined

Span
Click to sort rows by Start time (UTC) header in descending order
Start Az.
Max El. time (UTC)
Max El. Az.
Max El.
End time (UTC)
End Az.
6 mins2024-12-23 04:44:43.544Z44.388° NE2024-12-23 04:46:43.544Z83.613° E26.849°2024-12-23 04:50:43.544Z159.238° S
|